Terminal Aerodrome Forecast
Issued by NWS St Louis, MO

Home | Current Version | Previous Version | Text Only | Print | Product List | Glossary On
Versions: 1 2 3 4 5 6 7 8 9 10 11 12 13 14 15 16 17 18 19 20 21 22 23 24 25 26 27 28
759
FTUS43 KLSX 272032 AAA
TAFCOU
TAF AMD
KCOU 272032Z 2721/2818 05007KT 3SM BR VCSH OVC005
     FM272200 36009KT P6SM OVC015
     FM280800 03005KT P6SM BKN008=

USA.gov is the U.S. government's official web portal to all federal, state and local government web resources and services.